Regional Weather Roundup
Issued by NWS

Home | Current Version | Previous Version | Text Only | Print | Product List | Glossary Off
Versions: 1 2 3 4 5 6 7 8 9 10 11 12 13 14 15 16 17 18 19 20 21 22 23 24 25 26 27 28 29 30 31 32 33 34 35 36 37 38 39 40 41 42 43 44 45 46 47 48 49 50

000
ASUS45 KABQ 190301
RWRNM
NEW MEXICO REGIONAL WEATHER ROUNDUP
NATIONAL WEATHER SERVICE ALBUQUERQUE NM
900 PM MDT WED APR 18 2018

NOTE: "FAIR" MEANS FEW OR NO CLOUDS BELOW 12,000 FEET AGL WITH NO
       SIGNIFICANT WEATHER OR OBSTRUCTIONS TO VISION.

      THIS PRODUCT IS RELEASED AS TWO VERSIONS.  ONE VERSION NEAR
      THE TOP OF THE HOUR CONTAINING PRELIMINARY DATA FROM ALBUQUERQUE
      AND OTHER STATIONS.  A FINAL VERSION WITH ADDITIONAL DATA IS
      ISSUED ABOUT 10 MINUTES AFTER THE HOUR.

NMZ501-503-504-510>518-190400-
NORTHWEST PLATEAU/NORTHCENTRAL MOUNTAINS

CITY           SKY/WX    TMP DP  RH WIND       PRES   REMARKS
FARMINGTON     FAIR      50  -8   9 NE8       30.09R
LOS ALAMOS     FAIR      52   4  14 SE12      30.24R
SANTA FE       FAIR      54   9  16 SE20G28   30.20R
TAOS           FAIR      48   7  18 SE13      30.24R
ANGEL FIRE     FAIR      41   8  25 S16       30.30R

$$
NMZ402-403-502-505>509-190400-
WESTCENTRAL MOUNTAINS/SOUTHWEST MOUNTAINS

CITY           SKY/WX    TMP DP  RH WIND       PRES   REMARKS
GALLUP         FAIR      45  -5  12 CALM      30.12R
GRANTS         FAIR      53  -1  11 S10       30.15S
SILVER CITY    FAIR      62  10  13 E5        30.11S

$$
NMZ407-409-411-412-190400-
SOUTHERN DESERTS

CITY           SKY/WX    TMP DP  RH WIND       PRES   REMARKS
DEMING         FAIR      67  11  11 E5        30.05S
LAS CRUCES     FAIR      68  10  11 SE7       30.10R
HOLLOMAN AFB   FAIR      68   7   9 SE14      30.11R
ALAMOGORDO     FAIR      64  10  12 S12       30.11R
T OR C         FAIR      70   7   8 S10       30.07R

$$
NMZ519>523-190400-
CENTRAL VALLEYS/CENTRAL HIGHLANDS

CITY           SKY/WX    TMP DP  RH WIND       PRES   REMARKS
ALBUQUERQUE    FAIR      61  11  14 E21       30.11R
DOUBLE EAGLE   CLEAR     55   5  13 E12       30.15R
MORIARTY ARPT  FAIR      53  11  19 SE18      30.22R
CLINES CORNERS FAIR      47  10  22 SE15G25   30.26R
BELEN          FAIR      64   6  10 SE10      30.10R
SOCORRO        FAIR      61   9  12 SE7       30.09R

$$
NMZ524>526-539-540-190400-
SOUTHCENTRAL MOUNTAINS

CITY           SKY/WX    TMP DP  RH WIND       PRES   REMARKS
RUIDOSO        FAIR      48   7  18 SE14      30.30R

$$
NMZ527>531-190400-
NORTHEAST HIGHLANDS/NORTHEAST PLAINS

CITY           SKY/WX    TMP DP  RH WIND       PRES   REMARKS
LAS VEGAS      FAIR      41   9  26 SE10      30.28R
RATON          FAIR      44   8  23 SW3       30.27R
CLAYTON        FAIR      42   4  20 E9        30.26R

$$
NMZ532>537-190400-
EASTCENTRAL PLAINS

CITY           SKY/WX    TMP DP  RH WIND       PRES   REMARKS
SANTA ROSA     FAIR      50  12  21 E9        30.22R
TUCUMCARI      FAIR      52  10  18 E9        30.22R
CANNON AFB     FAIR      50  16  25 E9        30.26R
CLOVIS AIRPORT FAIR      45  15  30 E6        30.27R

$$
NMZ028-029-538-190400-
SOUTHEAST PLAINS

CITY           SKY/WX    TMP DP  RH WIND       PRES   REMARKS
ROSWELL        FAIR      58  17  20 SE7       30.18R
ARTESIA        FAIR      64  14  14 SE10      30.19R
CARLSBAD       FAIR      60  13  15 SE6       30.16R
HOBBS          FAIR      57  10  15 E9        30.22R


$$




USA.gov is the U.S. government's official web portal to all federal, state and local government web resources and services.